Regional Weather Roundup
Issued by NWS

Home | Current Version | Previous Version | Text Only | Print | Product List | Glossary On
Versions: 1 2 3 4 5 6 7 8 9 10 11 12 13 14 15 16 17 18 19 20 21 22 23 24 25 26 27 28 29 30 31 32 33 34 35 36 37 38 39 40 41 42 43 44 45 46 47 48 49 50
202
ASUS43 KTOP 260308
RWRKS

WEATHER ROUNDUP FOR KANSAS
NATIONAL WEATHER SERVICE GOODLAND KS
1000 PM CDT WED APR 25 2018

NOTE:  "FAIR" INDICATES FEW OR NO CLOUDS BELOW 12,000 FEET WITH NO
SIGNIFICANT WEATHER AND/OR OBSTRUCTIONS TO VISIBILITY.

KSZ001>006-013>018-027>032-041>047-260400-
NORTHWEST KANSAS

CITY           SKY/WX    TMP DP  RH WIND       PRES   REMARKS
GOODLAND       CLEAR     42  34  73 S10       30.05F
HAYS           CLEAR     43  35  73 SE8       30.08S
HILL CITY      CLEAR     44  37  76 CALM      30.07S
RUSSELL        CLEAR     43  40  89 SE9       30.07F
$$

KSZ061>065-074>080-084>089-260400-
SOUTHWEST KANSAS

CITY           SKY/WX    TMP DP  RH WIND       PRES   REMARKS
DODGE CITY     CLEAR     43  34  70 E3        30.09S
ELKHART        CLEAR     45  35  67 SE7       30.12S
GARDEN CITY    CLEAR     48  36  63 SE6       30.09R
GREAT BEND     CLEAR     43  39  86 SE5       30.09F
LIBERAL        CLEAR     47  37  68 S5        30.12R
PRATT          CLEAR     45  39  79 CALM      30.11S
$$

KSZ066>073-081>083-090>101-260400-
SOUTHEAST KANSAS

CITY           SKY/WX    TMP DP  RH WIND       PRES   REMARKS
CHANUTE        LGT RAIN  49  48  97 N10       30.05R
COFFEYVILLE    LGT RAIN  50  49  96 NW14      30.04S FOG
HUTCHINSON     CLEAR     41  41 100 NW3       30.09S
MEDICINE LODGE   N/A     43  39  86 NE6       30.10S
NEWTON         CLOUDY    44  42  93 N6        30.09F
PARSONS        CLOUDY    50  49  96 N13       30.05R FOG
WICHITA INTL   MOCLDY    48  43  82 N12       30.08F
WICHITA JABRA  CLOUDY    45  44  97 N8        30.08F
WICHITA MCCONL CLOUDY    46  43  91 N7        30.08F
WINFIELD       CLOUDY    47  45  93 NW9       30.10S
$$

KSZ007>012-019>026-033>040-048>060-102>105-260400-
NORTHEAST KANSAS

CITY           SKY/WX    TMP DP  RH WIND       PRES   REMARKS
CONCORDIA      CLEAR     43  37  79 S7        30.08S
EMPORIA        CLOUDY    47  45  93 N6        30.07S
LAWRENCE       FOG       46  44  93 CALM      30.06F VSB 1/2
MANHATTAN      CLEAR     45  42  89 W3        30.08F
MARYSVILLE     CLEAR     41  39  93 CALM      30.07S
OLATHE IND     CLOUDY    49  48  97 N7        30.07R
OLATHE EXE     CLOUDY    49  48  97 N6        30.05S
SALINA         CLEAR     44  42  93 SW3       30.10S
TOPEKA BILLARD MOCLDY    49  48  97 CALM      30.06S
TOPEKA FORBES  CLEAR     46  44  93 NW3       30.06S
$$




USA.gov is the U.S. government's official web portal to all federal, state and local government web resources and services.